Regional Weather Roundup
Issued by NWS Wakefield, VA

Home | Current Version | Previous Version | Text Only | Print | Product List | Glossary Off
Versions: 1 2 3 4 5 6 7 8 9 10 11 12 13 14 15 16 17 18 19 20 21 22 23 24 25 26 27 28 29 30 31 32 33 34 35 36 37 38 39 40 41 42 43 44 45 46 47 48 49 50

443
ASUS41 KAKQ 221115
RWRAKQ

REGIONAL WEATHER ROUNDUP
NATIONAL WEATHER SERVICE WAKEFIELD VA
700 AM EDT MON MAY 22 2017

Note: "fair" indicates few or no clouds below 12,000 feet with no
significant weather and/or obstructions to visibility. * = Denotes
station may not report precipitation (e.g., rain,snow,etc.),
thunder or fog.

VAZ042-051-052>054-056-221200-
NORTHERN VIRGINIA

CITY           SKY/WX    TMP DP  RH WIND       PRES   REMARKS
WASH NATIONAL  LGT RAIN  59  58  96 E5        30.11R
DULLES         LGT RAIN  57  56  96 CALM      30.10R FOG
FORT BELVOIR   LGT RAIN  58  57  94 CALM      30.10S
QUANTICO       CLOUDY    60  59  96 E6        30.11S
FREDERICKSBRG* LGT RAIN  60  60 100 CALM      30.09S
STAFFORD*      CLOUDY    58  58 100 E5        30.13F FOG
WARRENTON      RAIN      58  55  90 CALM      30.09S
CULPEPER*      RAIN      58  58  99 CALM      30.11R
MANASSAS*      LGT RAIN  58  57  97 SE3       30.10S
LEESBURG*      DRIZZLE   59  59 100 CALM      30.11S
WINCHESTER     LGT RAIN  55  55 100 CALM      30.07S
FRONT ROYAL*   CLOUDY    59  59 100 CALM      30.06S
LURAY*         RAIN      59  59 100 SW3       30.08S
$$

VAZ048-049-060>072-079>083-221200-
CENTRAL AND SOUTH CENTRAL VIRGINIA

CITY           SKY/WX    TMP DP  RH WIND       PRES   REMARKS
RICHMOND       LGT RAIN  60  60 100 NE3       30.09R VSB 1
CHESTERFIELD*  CLOUDY    61  45  55 E3        30.10S VSB 1
PETERSBURG*    CLOUDY    61  60  97 CALM      30.09S FOG
HANOVER        LGT RAIN  59  57  93 MISG      30.10S VSB 3/4
TAPPAHANNOCK*  LGT RAIN  62  62 100 CALM      30.10S
QUINTON*       CLOUDY    60  60 100 CALM      30.09S FOG
CHARLOTTSVILLE LGT RAIN  61  59  93 E3        30.09S
GORDONSVILLE*  CLOUDY    58  58 100 CALM      30.11R
ORANGE*        HVY RAIN  55  55 100 SW3       30.11R
LOUISA*        DRIZZLE   61  61 100 CALM      30.09S
BUMPASS*       CLOUDY    57  57 100 CALM      30.10S
FARMVILLE*     CLOUDY    62  62 100 N6        30.09R FOG
CREWE*           N/A     60  56  86 CALM      30.09R VSB 1
FORT PICKETT*  CLOUDY    60  56  88 CALM      30.08F VSB 1/4
CHASE CITY*    CLOUDY    61  59  94 CALM      30.07S
CLARKSVILLE*   CLOUDY    63  63 100 E3        30.05S
SOUTH HILL*    CLOUDY    61  61 100 CALM      30.13S
LAWRENCEVILLE* CLOUDY    61  60  97 CALM      30.08S
EMPORIA*       CLOUDY    63  61  94 CALM      30.10S FOG
$$

VAZ088>098-221200-
SOUTHEAST VIRGINIA

CITY           SKY/WX    TMP DP  RH WIND       PRES   REMARKS
NORFOLK        PTSUNNY   71  66  84 S7        30.07S
VIRGINIA BEACH CLOUDY    70  64  81 SE9       30.07S
NORFOLK NAVAL  CLOUDY    71  66  84 S6        30.09R
WEST POINT*    CLOUDY    62  62  97 CALM      30.10F
SALUDA*        CLOUDY    65  65 100 CALM      30.08S
NEWPORT NEWS   CLOUDY    68  65  90 SW5       30.08R
LANGLEY AFB    MOSUNNY   70  68  94 SW3       30.07R
FORT EUSTIS    CLOUDY    68  65  91 W3        30.06R
WILLIAMSBURG*  CLOUDY    66  66 100 CALM      30.09S
HR EXEC AP*    CLOUDY    66  63  88 S3        30.07S
FRANKLIN*      CLOUDY    64  62  93 CALM      30.09S FOG
US460-WAKEFLD  FOG       63  63 100 CALM      30.09S VSB 1/4
$$

VAZ020-022-025-037-045-221200-
WEST CENTRAL AND SOUTHWEST VIRGINIA

CITY           SKY/WX    TMP DP  RH WIND       PRES   REMARKS
STAUNTON*      CLOUDY    58  58  97 SW3       30.11S
WAYNESBORO*    CLOUDY    58  58 100 S9        30.10S
HOT SPRINGS VA FOG       46  45  93 S7        30.15S VSB<1/4
LYNCHBURG      RAIN      59  58  96 N7        30.11R FOG
DANVILLE       CLOUDY    64  64 100 NE10      30.03F
SOUTH BOSTON*  CLOUDY    62  61  94 CALM      30.05F
MARTINSVILLE   LGT RAIN  59  58  96 N7        30.09R
ROANOKE        CLOUDY    61  60  97 CALM      30.10S
BLACKSBURG     CLOUDY    57  56  97 CALM      30.13S
DUBLIN*        CLOUDY    59  56  91 CALM      30.12S FOG
MARION*        FOG       60  57  91 CALM      30.15S VSB 1/4
HILLSVILLE*    FOG       56  56 100 CALM      30.11R VSB<1/4
RICHLANDS*     CLOUDY    60  60  99 CALM      30.12S
WISE*          NOT AVBL
ABINGDON*      CLOUDY    62  62 100 CALM      30.11R
$$

MDZ021>025-VAZ099-100-221200-
SOUTHERN MARYLAND AND THE DELMARVA PENINSULA

CITY           SKY/WX    TMP DP  RH WIND       PRES   REMARKS
PATUXENT RIVER LGT RAIN  60  60 100 NE7       30.09S FOG
BAY BRIDGE APT RAIN      59  57  94 SE6       30.11S FOG
LEONARDTOWN    CLOUDY    59  57  94 CALM      30.11S
DOVER          RAIN      59  59 100 CALM      30.10S FOG
GEORGETOWN     LGT RAIN  62  59  90 CALM      30.11S FOG
EASTON         RAIN      59  57  94 NE5       30.14F
CAMBRIDGE      CLOUDY    59  57  94 NE5       30.10S
SALISBURY      LGT RAIN  62  62 100 SE3       30.09F
OCEAN CITY     CLOUDY    62  59  90 CALM      30.11F
WALLOPS ISLAND LGT RAIN  63  63 100 S5        30.10S
ACCOMACK*      CLOUDY    68  18  14 S9        30.09S
$$

NCZ012>017-030>032-221200-
NORTH CENTRAL AND EASTERN NORTH CAROLINA

CITY           SKY/WX    TMP DP  RH WIND       PRES   REMARKS
ROANOKE RAPIDS CLOUDY    64  64 100 CALM      30.08S
RALEIGH        LGT RAIN  69  67  93 SE12      30.02F FOG
ELIZABETH CITY CLOUDY    72  70  93 SE6       30.09R
AHOSKIE*         N/A     64  63  98 CALM      30.09R FOG
EDENTON*       CLOUDY    68  64  87 CALM      30.09S
CURRITUCK*     CLOUDY    71  70  99 SE5       30.09S
KILL DEVIL HLS NOT AVBL
MANTEO         CLOUDY    71  66  83 S6        30.10S
CAPE HATTERAS  CLOUDY    73  69  87 S5        30.10R
TARBORO*       NOT AVBL
GOLDSBORO      PTSUNNY   68  68 100 SE7       30.04F
WASHINGTON     CLOUDY    66  65  96 CALM      30.08S FOG
GREENVILLE     CLOUDY    68  68 100 CALM      30.09S FOG
NEW BERN       PTSUNNY   70  69  97 S3        30.10R FOG
WILMINGTON     PTCLDY    72  69  90 S5        30.08R
$$

VAZ048-221200-
ELSEWHERE

CITY           SKY/WX    TMP DP  RH WIND       PRES   REMARKS
HARRISBURG PA  CLOUDY    57  54  89 E7        30.09F
BALTIMORE      LGT RAIN  58  58 100 SE6       30.10S
ANNAPOLIS      LGT RAIN  60  60 100 E5        30.10S FOG
ANDREWS AFB    LGT RAIN  57  56  96 E5        30.09S
PHILADELPHIA   CLOUDY    56  53  90 E6        30.14S FOG
HENDERSON NC   LGT RAIN  64  62  96 SE6       30.05F
GREENSBORO     CLOUDY    65  65 100 W13       30.00R FOG
ROCKY MOUNT    LGT RAIN  66  66 100 CALM      30.06F FOG
$$

VAZ100-221200-
MARINE

STATION/POSITION TIME  TEMP    WIND        PRES    WAVE   SWELL
                       AIR SEA DIR/SP/G            HT/PER HT/PER
                 (UTC) (F)     (DEG/KT/KT) (MB)    (FT/S) (FT/S)
CAPE MAY NJ      1048   59 62  140/  7/  8 1019.1F
LEWES DE         1042   60 62  180/  4/  7 1019.2R
15NM E FENWICK I 0950   59 57  120/ 14/ 16 1019.8    4/ 6   3/13
OCEAN-CITY-INLET 1042   61 62  160/  9/ 13 1019.8F
WACHAPREAGUE VA  1048   66 66  170/  8/ 11 1018.5F
THOMAS POINT MD  1100   58 66   70/  7/  9   N/A
GOOSES REEF MD   1050   60      70/  8/ 10 1019.9F
COVE POINT MD    1048   59      60/  8/  9 1019.7S
SOLOMONS ISLAND  1042   60 67   50/  4/  5   N/A
BISHOPS HEAD MD  1048   62 67   50/  7/  8 1019.1F
PINEY POINT MD   1048           50/  5/  6   N/A
POTOMAC MD       1050   63      30/ 10/ 12 1018.0R
CAMBRIDGE MD     1042   58 69                N/A
LEWISETTA VA     1048   63 71   20/  4/  7 1018.5R
RAPPAHANNOCK LGT 1048          150/ 12/ 13 1019.0S
STINGRAY PT      1050   68     210/  8/ 10 1018.5R
YORK RVR RNG VA  1048   69     190/  5/  5 1017.9R
YORKTOWN VA      1048   68 69  270/  3/  3 1018.2R
JAMESTOWN VA     1050   65     260/  4/  6   N/A
DOMINION TERM VA 1048   69     180/  5/  5 1018.5R
KIPTOPEKE VA     1042      65  160/ 13/ 16   N/A
CHES BAY BRIDGE  1048   69 65  170/  8/ 10 1018.3S
CAPE HENRY VA    1048   67     150/  7/  9   N/A
WILLOUBY STN VA  1048   70     170/  8/  9 1018.3R
S CRANEY ISL VA  1048   70     210/  5/  7 1018.2R
CAPE HENRY BUOY  1042      61                N/A     4/ 8
1ST LANDING BUOY 1050   67                 1018.6R
CAPE CHARLES BUO 1051      62                N/A     3/ 7
64NM E OF VA BCH 1050   70 69  150/ 10/ 12 1019.7S   5/ 7   5/ 7
DUCK PIER NC     1048   67 66  140/  8/ 10 1018.6R
44100 DUCK FRF   1035      65                N/A     5/ 7   2/11
44056 DUCK FRF   1030      65                N/A     4/ 7   2/11
OREGON INLET NC  1042   68 69  120/  3/  5 1019.0R
HATTERAS NC      1048   72 74  160/  5/  8 1018.9R
DIAMOND SHLS NC  1050   73 78  130/  8/ 10 1019.1R   5/10   5/10
CAPE LOOKOUT NC  1000   72     200/  1/  2 1018.4R
$$




USA.gov is the U.S. government's official web portal to all federal, state and local government web resources and services.